Sterling, IL

10:09 PM CDT on June 26, 2017 (GMT -0500)
Whiteside County-Bittorf

Weather History for KSQI - May, 2014

Change the Weather History Date:

Saturday, May 3, 2014

  Actual Average Record
Temperature  
Mean Temperature 56 °F -  
Max Temperature 69 °F 66 °F 84 °F (2001)
Min Temperature 44 °F 46 °F 23 °F (2005)
Degree Days  
Heating Degree Days 8    
Growing Degree Days 6 (Base 50)    
Moisture  
Dew Point 40 °F    
Average Humidity 57    
Maximum Humidity 82    
Minimum Humidity 35    
Precipitation  
Precipitation 0.00 in - - ()
Sea Level Pressure  
Sea Level Pressure 29.80 in    
Wind  
Wind Speed 13 mph (WNW)    
Max Wind Speed 25 mph    
Max Gust Speed 31 mph    
Visibility 10 miles    
Events      
Averages and records for this station are not official NWS values.
T = Trace of Precipitation, MM = Missing Value Source: NWS Daily Summary

Daily Weather History Graph

Daily Weather History Graph

Search for Another Location

Airport or City:

Trip Planner

Search our weather history database for the weather conditions in past years. The results will help you decide how hot, cold, wet, or windy it might be!

Date:

Astronomy

May. 03, 2014 Rise Set
Actual Time 5:52 AM CDT 7:59 PM CDT
Civil Twilight 5:22 AM CDT 8:29 PM CDT
Nautical Twilight 4:44 AM CDT 9:07 PM CDT
Astronomical Twilight 4:03 AM CDT 9:48 PM CDT
Moon 9:21 AM CDT (5/3) No Moon Set
Length of Visible Light 15h 07m
Length of Day
14h 06m
Waxing Crescent, 20% of the Moon is Illuminated
May 3
Waxing Crescent
May 6
First Quarter
May 14
Full
May 21
Last Quarter
May 28
New

Hourly Weather History & Observations

Time (CDT) Temp. Windchill Dew Point Humidity Pressure Visibility Wind Dir Wind Speed Gust Speed Precip Events Conditions
12:15 AM 48.2 °F - 42.8 °F 82% 29.69 in 10.0 mi West 11.5 mph - N/A   Clear
12:35 AM 48.2 °F - 42.8 °F 82% 29.69 in 10.0 mi West 11.5 mph - N/A   Clear
12:55 AM 46.4 °F 41.9 °F 41.0 °F 81% 29.69 in 10.0 mi West 9.2 mph - N/A   Clear
1:15 AM 48.2 °F - 42.8 °F 82% 29.69 in 10.0 mi West 9.2 mph - N/A   Clear
1:35 AM 46.4 °F 41.9 °F 41.0 °F 81% 29.69 in 10.0 mi West 9.2 mph - N/A   Clear
1:55 AM 44.6 °F 39.7 °F 39.2 °F 81% 29.69 in 10.0 mi West 9.2 mph - N/A   Clear
2:15 AM 44.6 °F 39.7 °F 39.2 °F 81% 29.69 in 10.0 mi West 9.2 mph - N/A   Clear
2:35 AM 46.4 °F 41.5 °F 41.0 °F 81% 29.69 in 10.0 mi WNW 10.4 mph - N/A   Clear
2:55 AM 46.4 °F 41.1 °F 41.0 °F 81% 29.69 in 10.0 mi WNW 11.5 mph - N/A   Clear
3:15 AM 46.4 °F 41.1 °F 41.0 °F 81% 29.69 in 10.0 mi WNW 11.5 mph - N/A   Clear
3:35 AM 46.4 °F 41.1 °F 41.0 °F 81% 29.69 in 10.0 mi WNW 11.5 mph - N/A   Clear
3:55 AM 46.4 °F 41.1 °F 41.0 °F 81% 29.70 in 10.0 mi WNW 11.5 mph - N/A   Clear
4:15 AM 46.4 °F 41.5 °F 39.2 °F 76% 29.71 in 10.0 mi WNW 10.4 mph - N/A   Clear
4:35 AM 46.4 °F 41.1 °F 39.2 °F 76% 29.71 in 10.0 mi WNW 11.5 mph - N/A   Clear
5:15 AM 44.6 °F 38.8 °F 39.2 °F 81% 29.73 in 10.0 mi West 11.5 mph - N/A   Clear
5:35 AM 44.6 °F 39.2 °F 39.2 °F 81% 29.74 in 10.0 mi WNW 10.4 mph - N/A   Clear
5:55 AM 44.6 °F 39.2 °F 39.2 °F 81% 29.74 in 10.0 mi West 10.4 mph - N/A   Clear
6:15 AM 44.6 °F 39.2 °F 39.2 °F 81% 29.75 in 10.0 mi West 10.4 mph - N/A   Clear
6:35 AM 46.4 °F 40.7 °F 39.2 °F 76% 29.76 in 10.0 mi West 12.7 mph - N/A   Clear
6:55 AM 46.4 °F 40.4 °F 39.2 °F 76% 29.77 in 10.0 mi West 13.8 mph - N/A   Clear
7:15 AM 46.4 °F 40.7 °F 39.2 °F 76% 29.78 in 10.0 mi West 12.7 mph - N/A   Clear
7:35 AM 46.4 °F 40.4 °F 39.2 °F 76% 29.79 in 10.0 mi WNW 13.8 mph - N/A   Clear
7:55 AM 50.0 °F - 39.2 °F 66% 29.79 in 10.0 mi WNW 15.0 mph - N/A   Clear
8:15 AM 51.8 °F - 41.0 °F 67% 29.80 in 10.0 mi WNW 15.0 mph - N/A   Clear
8:35 AM 53.6 °F - 39.2 °F 58% 29.80 in 10.0 mi NW 16.1 mph 21.9 mph N/A   Clear
8:55 AM 55.4 °F - 39.2 °F 54% 29.81 in 10.0 mi NW 13.8 mph - N/A   Clear
9:15 AM 55.4 °F - 39.2 °F 54% 29.82 in 10.0 mi NW 13.8 mph - N/A   Clear
9:35 AM 57.2 °F - 39.2 °F 51% 29.82 in 10.0 mi NW 12.7 mph 17.3 mph N/A   Clear
9:55 AM 57.2 °F - 41.0 °F 55% 29.82 in 10.0 mi NW 12.7 mph - N/A   Clear
10:15 AM 60.8 °F - 41.0 °F 48% 29.83 in 10.0 mi WNW 13.8 mph 17.3 mph N/A   Clear
10:35 AM 60.8 °F - 39.2 °F 45% 29.83 in 10.0 mi NW 16.1 mph - N/A   Clear
10:55 AM 60.8 °F - 39.2 °F 45% 29.84 in 10.0 mi WNW 19.6 mph - N/A   Clear
11:15 AM 62.6 °F - 39.2 °F 42% 29.84 in 10.0 mi WNW 13.8 mph 18.4 mph N/A   Clear
11:35 AM 64.4 °F - 41.0 °F 42% 29.84 in 10.0 mi NW 16.1 mph 26.5 mph N/A   Clear
11:55 AM 64.4 °F - 37.4 °F 37% 29.84 in 10.0 mi NW 16.1 mph 25.3 mph N/A   Clear
12:15 PM 64.4 °F - 39.2 °F 40% 29.84 in 10.0 mi WNW 18.4 mph 23.0 mph N/A   Clear
12:35 PM 66.2 °F - 39.2 °F 37% 29.84 in 10.0 mi WNW 18.4 mph 27.6 mph N/A   Clear
12:55 PM 66.2 °F - 39.2 °F 37% 29.84 in 10.0 mi NW 23.0 mph 28.8 mph N/A   Clear
1:15 PM 66.2 °F - 39.2 °F 37% 29.84 in 10.0 mi NW 20.7 mph 31.1 mph N/A   Clear
1:35 PM 66.2 °F - 39.2 °F 37% 29.84 in 10.0 mi NW 19.6 mph 27.6 mph N/A   Scattered Clouds
1:55 PM 66.2 °F - 39.2 °F 37% 29.84 in 10.0 mi WNW 23.0 mph 31.1 mph N/A   Mostly Cloudy
2:15 PM 66.2 °F - 39.2 °F 37% 29.84 in 10.0 mi WNW 21.9 mph 27.6 mph N/A   Scattered Clouds
2:35 PM 68.0 °F - 39.2 °F 35% 29.84 in 10.0 mi WNW 23.0 mph 29.9 mph N/A   Scattered Clouds
3:15 PM 66.2 °F - 41.0 °F 40% 29.83 in 10.0 mi WNW 23.0 mph 26.5 mph N/A   Mostly Cloudy
3:35 PM 66.2 °F - 39.2 °F 37% 29.82 in 10.0 mi WNW 25.3 mph 31.1 mph N/A   Mostly Cloudy
3:55 PM 66.2 °F - 39.2 °F 37% 29.82 in 10.0 mi WNW 20.7 mph - N/A   Mostly Cloudy
4:15 PM 69.8 °F - 41.0 °F 35% 29.82 in 10.0 mi WNW 20.7 mph 28.8 mph N/A   Mostly Cloudy
4:35 PM 66.2 °F - 39.2 °F 37% 29.82 in 10.0 mi WNW 18.4 mph 27.6 mph N/A   Mostly Cloudy
4:55 PM 66.2 °F - 39.2 °F 37% 29.82 in 10.0 mi WNW 23.0 mph 28.8 mph N/A   Scattered Clouds
5:15 PM 66.2 °F - 39.2 °F 37% 29.83 in 10.0 mi NW 24.2 mph 29.9 mph N/A   Scattered Clouds
5:35 PM 66.2 °F - 39.2 °F 37% 29.83 in 10.0 mi NW 18.4 mph 27.6 mph N/A   Scattered Clouds
5:55 PM 66.2 °F - 37.4 °F 35% 29.83 in 10.0 mi NW 15.0 mph 27.6 mph N/A   Scattered Clouds
6:15 PM 66.2 °F - 39.2 °F 37% 29.83 in 10.0 mi NW 16.1 mph 23.0 mph N/A   Partly Cloudy
6:35 PM 66.2 °F - 39.2 °F 37% 29.83 in 10.0 mi NW 12.7 mph 21.9 mph N/A   Partly Cloudy
6:55 PM 64.4 °F - 41.0 °F 42% 29.84 in 10.0 mi NW 11.5 mph 16.1 mph N/A   Clear
7:15 PM 62.6 °F - 41.0 °F 45% 29.84 in 10.0 mi NW 8.1 mph - N/A   Scattered Clouds
7:35 PM 62.6 °F - 41.0 °F 45% 29.85 in 10.0 mi NW 9.2 mph - N/A   Overcast
7:55 PM 60.8 °F - 41.0 °F 48% 29.85 in 10.0 mi NW 6.9 mph - N/A   Scattered Clouds
8:15 PM 60.8 °F - 42.8 °F 52% 29.86 in 10.0 mi NW 5.8 mph - N/A   Clear
8:35 PM 59.0 °F - 41.0 °F 51% 29.86 in 10.0 mi NW 6.9 mph - N/A   Clear
8:55 PM 57.2 °F - 41.0 °F 55% 29.87 in 10.0 mi NW 6.9 mph - N/A   Clear
9:15 PM 57.2 °F - 41.0 °F 55% 29.87 in 10.0 mi NW 5.8 mph - N/A   Clear
9:35 PM 57.2 °F - 41.0 °F 55% 29.88 in 10.0 mi NW 6.9 mph - N/A   Clear
9:55 PM 55.4 °F - 42.8 °F 63% 29.89 in 10.0 mi WNW 6.9 mph - N/A   Clear
10:15 PM 55.4 °F - 42.8 °F 63% 29.89 in 10.0 mi NW 6.9 mph - N/A   Mostly Cloudy
10:35 PM 55.4 °F - 42.8 °F 63% 29.90 in 10.0 mi WNW 8.1 mph - N/A   Mostly Cloudy
10:55 PM 55.4 °F - 42.8 °F 63% 29.91 in 10.0 mi West 8.1 mph - N/A   Overcast
11:15 PM 55.4 °F - 42.8 °F 63% 29.91 in 10.0 mi West 9.2 mph - N/A   Overcast
11:35 PM 55.4 °F - 42.8 °F 63% 29.92 in 10.0 mi WNW 9.2 mph - N/A   Overcast
11:55 PM 55.4 °F - 42.8 °F 63% 29.93 in 10.0 mi NW 8.1 mph - N/A   Overcast